Vorticity
6 6 6 6 7 6 6 5 6 6 5 4 4 5 4 5 5 5 5 5 5 5 6 6 5 6 6 5 5 6 8 8 8
6 5 5 6 6 5 5 5 5 5 5 4 5 5 5 5 5 6 5 4 5 6 7 6 5 6 6 6 6 6 6 6 6
6 5 6 6 7 6 5 5 5 5 4 5 5 5 6 5 5 4 3 5 5 6 6 6 4 5 6 6 6 6 6 6 6
5 5 5 5 6 6 5 5 5 5 5 5 5 5 6 6 4 1 3 6 5 5 6 5 4 6 5 5 6 6 7 7 7
4 5 5 5 5 5 5 5 5 5 5 5 5 5 6 5 4 2 5 5 4 4 6 5 5 6 3 5 7 7 8 7 8
4 4 4 5 4 4 4 4 4 4 4 4 4 4 4 5 4 2 5 5 4 4 7 8 6 5 5 9 9 9 8 6 8
3 4 4 4 4 4 4 4 4 4 4 4 4 5 5 5 6 4 5 4 4 5 6 7 6 6 6 8 7 6 5 7 10
4 4 4 4 4 4 4 4 4 4 4 4 4 5 5 5 5 5 5 5 3 5 7 7 7 7 7 6 5 6 10 9 7
4 4 4 4 5 4 4 3 4 4 3 4 3 5 4 5 5 8 5 6 1 2 8 7 8 7 6 5 7 10 6 7 7
3 3 3 5 4 4 4 3 5 3 4 3 4 4 5 6 6 7 6 4 4 5 8 7 8 7 6 7 10 6 8 6 6
3 3 3 4 4 4 4 4 4 3 4 3 4 5 4 6 5 6 6 4 6 7 6 6 8 8 7 11 8 7 5 8 11
4 4 3 3 3 4 4 4 4 3 3 4 4 4 4 5 5 7 7 7 6 6 4 7 10 9 10 8 7 6 10 12 7
3 3 3 3 5 4 4 5 5 4 4 3 4 4 5 5 4 5 10 10 6 3 4 8 11 9 8 6 6 11 15 4 3
3 3 3 4 4 4 4 4 5 4 4 4 4 4 5 6 3 8 7 10 4 4 5 10 8 8 8 8 12 12 7 6 5
3 4 4 4 4 4 4 4 5 5 5 5 5 4 6 8 3 8 11 7 3 6 8 9 7 9 9 10 10 8 7 2 8
3 4 4 4 4 4 4 4 5 6 5 6 1 9 2 -2 14 10 11 4 4 5 9 10 11 12 7 9 10 5 2 7 9
4 4 4 4 4 4 3 4 4 6 7 -1 4 6 -1 12 5 13 7 5 6 8 10 10 11 9 9 10 5 2 8 5 8
4 4 4 4 4 3 4 3 5 8 -5 12 2 6 3 8 16 10 6 7 8 9 10 11 11 9 8 10 4 7 4 7 8
6 5 4 4 3 3 4 4 6 -6 15 5 4 4 17 16 11 6 6 8 8 11 10 11 8 10 11 6 5 5 5 7 12
4 5 2 4 3 3 5 5 8 5 7 7 4 12 11 13 7 2 7 9 10 10 11 9 10 11 5 5 4 6 6 9 14
Height
5890 5889 5888 5888 5887 5887 5886 5885 5885 5884 5884 5883 5882 5882 5880 5879 5878 5876 5874 5872 5870 5868 5867 5864 5862 5860 5859 5856 5855 5853 5851 5849 5847
5889 5888 5888 5887 5887 5886 5885 5885 5884 5884 5882 5881 5881 5880 5879 5878 5876 5874 5873 5871 5869 5867 5865 5863 5861 5858 5856 5854 5852 5850 5848 5846 5844
5888 5887 5887 5887 5886 5886 5885 5884 5883 5883 5881 5880 5880 5879 5877 5876 5874 5873 5871 5869 5868 5866 5864 5862 5859 5856 5854 5852 5850 5847 5845 5843 5840
5887 5886 5886 5886 5885 5885 5884 5883 5883 5881 5880 5880 5879 5877 5876 5874 5872 5871 5869 5867 5865 5863 5861 5859 5857 5854 5852 5849 5847 5844 5842 5840 5837
5886 5886 5885 5885 5884 5884 5883 5882 5882 5880 5879 5878 5877 5876 5874 5873 5871 5869 5867 5864 5862 5860 5858 5856 5854 5852 5849 5846 5844 5842 5839 5836 5834
5884 5884 5884 5883 5883 5882 5881 5880 5879 5878 5877 5876 5875 5874 5872 5871 5869 5867 5864 5862 5860 5857 5855 5852 5850 5847 5845 5843 5840 5838 5835 5832 5829
5882 5882 5882 5882 5881 5880 5879 5878 5877 5876 5875 5874 5873 5871 5869 5868 5866 5863 5861 5858 5856 5853 5851 5848 5845 5843 5840 5838 5836 5833 5830 5827 5824
5880 5880 5880 5880 5880 5879 5877 5876 5876 5874 5873 5872 5870 5868 5866 5864 5863 5860 5858 5855 5852 5850 5847 5844 5842 5839 5836 5833 5830 5827 5824 5821 5819
5877 5877 5878 5878 5877 5876 5876 5875 5873 5871 5870 5868 5867 5865 5863 5861 5859 5857 5854 5851 5848 5846 5843 5839 5837 5834 5830 5827 5824 5821 5819 5816 5814
5874 5874 5875 5875 5874 5873 5873 5872 5870 5869 5867 5866 5864 5861 5859 5857 5854 5852 5849 5846 5844 5841 5838 5835 5831 5828 5825 5822 5818 5816 5813 5811 5809
5871 5871 5871 5871 5870 5870 5869 5868 5866 5865 5863 5861 5859 5857 5855 5852 5850 5846 5844 5841 5838 5835 5832 5829 5826 5823 5819 5816 5813 5810 5808 5805 5802
5867 5867 5867 5867 5866 5866 5864 5863 5862 5860 5859 5857 5855 5853 5850 5847 5844 5841 5838 5835 5832 5829 5826 5823 5820 5816 5813 5810 5807 5804 5801 5798 5796
5862 5862 5862 5862 5862 5861 5860 5858 5857 5855 5854 5852 5850 5848 5845 5842 5838 5835 5832 5828 5825 5823 5819 5816 5813 5810 5806 5803 5801 5798 5795 5791 5788
5857 5857 5857 5857 5857 5855 5854 5853 5852 5850 5848 5846 5844 5841 5839 5836 5832 5829 5825 5821 5818 5816 5812 5808 5805 5802 5800 5797 5794 5790 5788 5786 5782
5851 5851 5851 5851 5850 5849 5849 5847 5846 5844 5841 5839 5838 5835 5832 5829 5825 5821 5817 5814 5811 5808 5804 5800 5797 5794 5792 5789 5786 5784 5781 5778 5775
5845 5845 5845 5844 5844 5843 5842 5840 5839 5837 5835 5833 5830 5828 5825 5822 5818 5813 5810 5806 5803 5800 5796 5793 5790 5788 5784 5781 5779 5777 5774 5770 5767
5839 5838 5838 5837 5837 5835 5834 5832 5831 5830 5827 5825 5822 5819 5817 5812 5809 5806 5802 5799 5795 5791 5787 5785 5782 5779 5776 5774 5771 5768 5765 5762 5758
5831 5831 5831 5830 5829 5828 5826 5824 5823 5821 5820 5816 5813 5809 5806 5804 5801 5798 5794 5790 5786 5782 5779 5776 5774 5771 5769 5766 5763 5760 5757 5753 5749
5823 5823 5822 5822 5821 5819 5818 5816 5814 5812 5811 5808 5805 5801 5798 5794 5793 5789 5785 5781 5777 5773 5769 5766 5765 5763 5760 5758 5756 5752 5749 5744 5740
5814 5814 5813 5813 5812 5810 5809 5807 5805 5803 5801 5798 5796 5793 5789 5786 5784 5783 5779 5774 5769 5763 5760 5758 5757 5755 5753 5751 5747 5744 5740 5735 5730